| time (UTC) | temp F | wind direction | speed MPH | gust MPH | rain 1hr in | rain 24hr in | rain mn in | humidity % | barometer mb |
| 20260503225838 | 65 | 127 | 1.0 | 6.0 | 0.00 | 0.00 | 0.00 | 23 | 1011.0 |
| 20260503225334 | 63 | 116 | 1.0 | 2.0 | 0.00 | 0.00 | 0.00 | 26 | 1010.9 |
| 20260503224830 | 63 | 135 | 3.0 | 7.0 | 0.00 | 0.00 | 0.00 | 24 | 1010.8 |
| 20260503224328 | 63 | 122 | 7.0 | 9.0 | 0.00 | 0.00 | 0.00 | 23 | 1010.8 |
| 20260503223825 | 64 | 15 | 5.0 | 6.0 | 0.00 | 0.00 | 0.00 | 24 | 1010.5 |
| 20260503223323 | 65 | 331 | 6.0 | 7.0 | 0.00 | 0.00 | 0.00 | 23 | 1010.9 |
| 20260503222818 | 64 | 33 | 2.0 | 3.0 | 0.00 | 0.00 | 0.00 | 24 | 1010.7 |
| 20260503222317 | 64 | 52 | 2.0 | 4.0 | 0.00 | 0.00 | 0.00 | 23 | 1010.5 |
| 20260503221815 | 63 | 95 | 1.0 | 4.0 | 0.00 | 0.00 | 0.00 | 23 | 1010.7 |
| 20260503221313 | 63 | 20 | 4.0 | 8.0 | 0.00 | 0.00 | 0.00 | 24 | 1010.8 |
| 20260503220809 | 63 | 247 | 4.0 | 11.0 | 0.00 | 0.00 | 0.00 | 24 | 1010.5 |
| 20260503220306 | 64 | 72 | 2.0 | 4.0 | 0.00 | 0.00 | 0.00 | 25 | 1010.9 |
| 20260503215802 | 63 | 187 | 5.0 | 7.0 | 0.00 | 0.00 | 0.00 | 23 | 1010.9 |
| 20260503215259 | 62 | 71 | 3.0 | 10.0 | 0.00 | 0.00 | 0.00 | 23 | 1011.0 |
| 20260503214757 | 63 | 306 | 8.0 | 14.0 | 0.00 | 0.00 | 0.00 | 23 | 1010.7 |
| 20260503214254 | 64 | 26 | 4.0 | 7.0 | 0.00 | 0.00 | 0.00 | 23 | 1010.9 |
| 20260503213752 | 64 | 6 | 9.0 | 14.0 | 0.00 | 0.00 | 0.00 | 23 | 1010.9 |
| 20260503213249 | 63 | 315 | 3.0 | 7.0 | 0.00 | 0.00 | 0.00 | 23 | 1010.8 |
| 20260503212746 | 63 | 1 | 3.0 | 9.0 | 0.00 | 0.00 | 0.00 | 23 | 1010.9 |
| 20260503212244 | 63 | 25 | 8.0 | 11.0 | 0.00 | 0.00 | 0.00 | 22 | 1011.0 |
| 20260503211741 | 64 | 296 | 11.0 | 15.0 | 0.00 | 0.00 | 0.00 | 24 | 1011.0 |
| 20260503211237 | 63 | 292 | 7.0 | 10.0 | 0.00 | 0.00 | 0.00 | 24 | 1011.1 |
| 20260503210732 | 63 | 80 | 3.0 | 9.0 | 0.00 | 0.00 | 0.00 | 23 | 1010.9 |
| 20260503210230 | 63 | 124 | 2.0 | 6.0 | 0.00 | 0.00 | 0.00 | 23 | 1010.9 |
| 20260503205725 | 62 | 9 | 9.0 | 11.0 | 0.00 | 0.00 | 0.00 | 24 | 1011.1 |
| 20260503205222 | 62 | 3 | 9.0 | 14.0 | 0.00 | 0.00 | 0.00 | 26 | 1011.1 |
| 20260503204718 | 62 | 312 | 8.0 | 13.0 | 0.00 | 0.00 | 0.00 | 23 | 1011.1 |
| 20260503204216 | 62 | 327 | 8.0 | 13.0 | 0.00 | 0.00 | 0.00 | 23 | 1011.2 |
| 20260503203713 | 63 | 123 | 6.0 | 8.0 | 0.00 | 0.00 | 0.00 | 25 | 1011.1 |
| 20260503203211 | 62 | 337 | 5.0 | 7.0 | 0.00 | 0.00 | 0.00 | 26 | 1011.3 |
| 20260503202708 | 62 | 359 | 5.0 | 11.0 | 0.00 | 0.00 | 0.00 | 23 | 1011.4 |
| 20260503202206 | 62 | 140 | 2.0 | 8.0 | 0.00 | 0.00 | 0.00 | 23 | 1011.4 |
| 20260503201703 | 61 | 330 | 3.0 | 4.0 | 0.00 | 0.00 | 0.00 | 24 | 1011.3 |
| 20260503201200 | 60 | 97 | 3.0 | 4.0 | 0.00 | 0.00 | 0.00 | 27 | 1011.6 |
| 20260503200656 | 62 | 9 | 10.0 | 13.0 | 0.00 | 0.00 | 0.00 | 24 | 1011.7 |
| 20260503200153 | 60 | 156 | 0.0 | 2.0 | 0.00 | 0.00 | 0.00 | 25 | 1011.7 |
| 20260503195650 | 61 | 280 | 6.0 | 9.0 | 0.00 | 0.00 | 0.00 | 28 | 1011.8 |
| 20260503195147 | 62 | 330 | 9.0 | 10.0 | 0.00 | 0.00 | 0.00 | 24 | 1011.9 |
| 20260503194644 | 61 | 345 | 7.0 | 8.0 | 0.00 | 0.00 | 0.00 | 25 | 1012.0 |
| 20260503194139 | 61 | 156 | 4.0 | 13.0 | 0.00 | 0.00 | 0.00 | 25 | 1012.0 |
| 20260503193637 | 59 | 18 | 10.0 | 13.0 | 0.00 | 0.00 | 0.00 | 28 | 1012.0 |
| 20260503193132 | 59 | 157 | 9.0 | 19.0 | 0.00 | 0.00 | 0.00 | 25 | 1011.9 |
| 20260503192628 | 60 | 346 | 9.0 | 14.0 | 0.00 | 0.00 | 0.00 | 26 | 1012.1 |
| 20260503192124 | 59 | 326 | 12.0 | 16.0 | 0.00 | 0.00 | 0.00 | 25 | 1012.3 |
| 20260503191621 | 60 | 295 | 11.0 | 18.0 | 0.00 | 0.00 | 0.00 | 25 | 1012.4 |
| 20260503191118 | 60 | 30 | 11.0 | 15.0 | 0.00 | 0.00 | 0.00 | 25 | 1012.3 |
| 20260503190615 | 61 | 84 | 1.0 | 7.0 | 0.00 | 0.00 | 0.00 | 26 | 1012.5 |
| 20260503190112 | 60 | 341 | 5.0 | 14.0 | 0.00 | 0.00 | 0.00 | 28 | 1012.4 |
| 20260503185608 | 58 | 117 | 2.0 | 7.0 | 0.00 | 0.00 | 0.00 | 28 | 1012.5 |
| 20260503185108 | 58 | 21 | 5.0 | 8.0 | 0.00 | 0.00 | 0.00 | 27 | 1012.7 |
| 20260503184604 | 59 | 45 | 7.0 | 14.0 | 0.00 | 0.00 | 0.00 | 28 | 1012.8 |
| 20260503184100 | 59 | 318 | 5.0 | 9.0 | 0.00 | 0.00 | 0.00 | 26 | 1012.8 |
| 20260503183557 | 58 | 306 | 6.0 | 9.0 | 0.00 | 0.00 | 0.00 | 28 | 1012.8 |
| 20260503183054 | 58 | 335 | 5.0 | 10.0 | 0.00 | 0.00 | 0.00 | 28 | 1013.0 |
| 20260503182553 | 58 | 308 | 15.0 | 17.0 | 0.00 | 0.00 | 0.00 | 29 | 1013.1 |
| 20260503182050 | 59 | 327 | 9.0 | 13.0 | 0.00 | 0.00 | 0.00 | 30 | 1012.9 |
| 20260503181547 | 59 | 103 | 4.0 | 6.0 | 0.00 | 0.00 | 0.00 | 31 | 1012.9 |
| 20260503181043 | 57 | 149 | 1.0 | 4.0 | 0.00 | 0.00 | 0.00 | 30 | 1012.9 |
| 20260503180541 | 57 | 318 | 5.0 | 8.0 | 0.00 | 0.00 | 0.00 | 30 | 1013.0 |
| 20260503180038 | 57 | 335 | 6.0 | 11.0 | 0.00 | 0.00 | 0.00 | 30 | 1013.1 |
| 20260503175535 | 57 | 9 | 6.0 | 10.0 | 0.00 | 0.00 | 0.00 | 31 | 1013.1 |
| 20260503175033 | 56 | 306 | 6.0 | 11.0 | 0.00 | 0.00 | 0.00 | 33 | 1013.0 |
| 20260503174530 | 57 | 128 | 7.0 | 17.0 | 0.00 | 0.00 | 0.00 | 30 | 1013.2 |
| 20260503174026 | 57 | 333 | 3.0 | 7.0 | 0.00 | 0.00 | 0.00 | 32 | 1013.0 |
| 20260503173521 | 57 | 61 | 7.0 | 10.0 | 0.00 | 0.00 | 0.00 | 30 | 1013.2 |
| 20260503173017 | 56 | 111 | 2.0 | 6.0 | 0.00 | 0.00 | 0.00 | 31 | 1013.3 |
| 20260503172515 | 55 | 320 | 10.0 | 14.0 | 0.00 | 0.00 | 0.00 | 32 | 1013.2 |
| 20260503172012 | 56 | 158 | 3.0 | 13.0 | 0.00 | 0.00 | 0.00 | 31 | 1013.3 |
| 20260503171509 | 54 | 165 | 2.0 | 11.0 | 0.00 | 0.00 | 0.00 | 32 | 1013.3 |
| 20260503171006 | 55 | 120 | 6.0 | 11.0 | 0.00 | 0.00 | 0.00 | 32 | 1013.5 |
| 20260503170502 | 55 | 322 | 11.0 | 14.0 | 0.00 | 0.00 | 0.00 | 32 | 1013.6 |
| 20260503150855 | 50 | 106 | 2.0 | 7.0 | 0.00 | 0.00 | 0.00 | 38 | 1014.8 |
| 20260503150351 | 49 | 206 | 4.0 | 9.0 | 0.00 | 0.00 | 0.00 | 38 | 1014.6 |
| 20260503140315 | 48 | 341 | 2.0 | 3.0 | 0.00 | 0.00 | 0.00 | 42 | 1014.7 |
| 20260503131244 | 45 | 357 | 9.0 | 13.0 | 0.00 | 0.00 | 0.00 | 48 | 1014.8 |
| 20260503130742 | 44 | 29 | 6.0 | 9.0 | 0.00 | 0.00 | 0.00 | 48 | 1014.6 |
| 20260503130239 | 45 | 342 | 7.0 | 8.0 | 0.00 | 0.00 | 0.00 | 48 | 1014.9 |
| 20260503120205 | 42 | 111 | 2.0 | 8.0 | 0.00 | 0.00 | 0.00 | 55 | 1014.7 |
| 20260503110632 | 39 | 148 | 1.0 | 2.0 | 0.00 | 0.00 | 0.00 | 60 | 1013.9 |
| 20260503110130 | 38 | 140 | 1.0 | 1.0 | 0.00 | 0.00 | 0.00 | 63 | 1014.0 |
| 20260503081446 | 41 | 139 | 1.0 | 2.0 | 0.00 | 0.00 | 0.00 | 63 | 1012.2 |
| 20260503080943 | 41 | 157 | 1.0 | 2.0 | 0.00 | 0.00 | 0.00 | 63 | 1012.2 |
| 20260503080439 | 41 | 130 | 1.0 | 2.0 | 0.00 | 0.00 | 0.00 | 63 | 1011.9 |
| 20260503072916 | 41 | 75 | 2.0 | 2.0 | 0.00 | 0.00 | 0.00 | 63 | 1011.9 |
| 20260503072413 | 41 | 130 | 1.0 | 1.0 | 0.00 | 0.00 | 0.00 | 63 | 1011.9 |
| 20260503071910 | 41 | 138 | 0.0 | 1.0 | 0.00 | 0.00 | 0.00 | 63 | 1011.8 |
| 20260503071407 | 41 | 150 | 0.0 | 1.0 | 0.00 | 0.00 | 0.00 | 62 | 1011.7 |
| 20260503070903 | 42 | 119 | 0.0 | 1.0 | 0.00 | 0.00 | 0.00 | 61 | 1011.8 |
| 20260503070400 | 42 | 127 | 2.0 | 7.0 | 0.00 | 0.00 | 0.00 | 60 | 1011.7 |
| 20260503060326 | 44 | 133 | 1.0 | 2.0 | 0.00 | 0.00 | 0.00 | 60 | 1011.5 |
| 20260503054814 | 44 | 125 | 2.0 | 3.0 | 0.00 | 0.00 | 0.00 | 61 | 1011.5 |
| 20260503054310 | 44 | 141 | 1.0 | 2.0 | 0.00 | 0.00 | 0.00 | 62 | 1011.5 |
| 20260503053808 | 44 | 149 | 1.0 | 4.0 | 0.00 | 0.00 | 0.00 | 61 | 1011.5 |
| 20260503053306 | 44 | 345 | 2.0 | 3.0 | 0.00 | 0.00 | 0.00 | 61 | 1011.5 |
| 20260503052802 | 44 | 144 | 1.0 | 4.0 | 0.00 | 0.00 | 0.00 | 62 | 1011.5 |
| 20260503052259 | 43 | 142 | 0.0 | 2.0 | 0.00 | 0.00 | 0.00 | 63 | 1011.3 |
| 20260503051755 | 43 | 144 | 2.0 | 4.0 | 0.00 | 0.00 | 0.00 | 63 | 1011.5 |
| 20260503051252 | 42 | 146 | 1.0 | 3.0 | 0.00 | 0.00 | 0.00 | 65 | 1011.5 |
| 20260503050748 | 42 | 147 | 0.0 | 2.0 | 0.00 | 0.00 | 0.00 | 65 | 1011.4 |
| 20260503050244 | 42 | 148 | 1.0 | 2.0 | 0.00 | 0.00 | 0.00 | 65 | 1011.5 |
| 20260503045742 | 41 | 145 | 0.0 | 0.0 | 0.00 | 0.00 | 0.00 | 65 | 1011.5 |
| 20260503045240 | 42 | 152 | 0.0 | 0.0 | 0.00 | 0.00 | 0.00 | 64 | 1011.4 |
| 20260503044736 | 42 | 136 | 1.0 | 1.0 | 0.00 | 0.00 | 0.00 | 64 | 1011.4 |
| 20260503044233 | 42 | 121 | 2.0 | 2.0 | 0.00 | 0.00 | 0.00 | 63 | 1011.6 |
| 20260503043730 | 42 | 143 | 1.0 | 2.0 | 0.00 | 0.00 | 0.00 | 63 | 1011.5 |
| 20260503043227 | 43 | 156 | 0.0 | 1.0 | 0.00 | 0.00 | 0.00 | 63 | 1011.6 |
| 20260503042723 | 43 | 128 | 1.0 | 2.0 | 0.00 | 0.00 | 0.00 | 62 | 1011.7 |
| 20260503042220 | 43 | 138 | 1.0 | 2.0 | 0.00 | 0.00 | 0.00 | 61 | 1011.6 |
| 20260503041716 | 44 | 147 | 0.0 | 0.0 | 0.00 | 0.00 | 0.00 | 60 | 1011.6 |
| 20260503041214 | 44 | 149 | 0.0 | 0.0 | 0.00 | 0.00 | 0.00 | 59 | 1011.5 |
| 20260503040711 | 44 | 150 | 0.0 | 0.0 | 0.00 | 0.00 | 0.00 | 58 | 1011.6 |
| 20260503040209 | 45 | 149 | 0.0 | 3.0 | 0.00 | 0.00 | 0.00 | 57 | 1011.4 |
| 20260503035705 | 45 | 79 | 3.0 | 4.0 | 0.00 | 0.00 | 0.00 | 58 | 1011.4 |
| 20260503035203 | 45 | 139 | 3.0 | 4.0 | 0.00 | 0.00 | 0.00 | 57 | 1011.3 |
| 20260503034700 | 45 | 142 | 1.0 | 2.0 | 0.00 | 0.00 | 0.00 | 56 | 1011.3 |
| 20260503034157 | 45 | 143 | 2.0 | 4.0 | 0.00 | 0.00 | 0.00 | 55 | 1011.4 |
| 20260503033654 | 45 | 77 | 1.0 | 4.0 | 0.00 | 0.00 | 0.00 | 55 | 1011.5 |
| 20260503033152 | 45 | 91 | 2.0 | 3.0 | 0.00 | 0.00 | 0.00 | 55 | 1011.5 |
| 20260503032650 | 46 | 149 | 1.0 | 4.0 | 0.00 | 0.00 | 0.00 | 55 | 1011.3 |
| 20260503032148 | 46 | 127 | 1.0 | 2.0 | 0.00 | 0.00 | 0.00 | 54 | 1011.2 |
| 20260503031645 | 46 | 145 | 2.0 | 4.0 | 0.00 | 0.00 | 0.00 | 53 | 1011.1 |
| 20260503031143 | 46 | 10 | 5.0 | 6.0 | 0.00 | 0.00 | 0.00 | 53 | 1011.3 |
| 20260503030638 | 46 | 99 | 2.0 | 6.0 | 0.00 | 0.00 | 0.00 | 52 | 1011.2 |
| 20260503030136 | 47 | 32 | 2.0 | 7.0 | 0.00 | 0.00 | 0.00 | 52 | 1011.2 |
| 20260503025632 | 47 | 103 | 1.0 | 2.0 | 0.00 | 0.00 | 0.00 | 51 | 1011.2 |
| 20260503025130 | 48 | 90 | 4.0 | 8.0 | 0.00 | 0.00 | 0.00 | 50 | 1011.1 |
| 20260503024626 | 48 | 111 | 0.0 | 6.0 | 0.00 | 0.00 | 0.00 | 49 | 1011.0 |
| 20260503024123 | 48 | 137 | 2.0 | 6.0 | 0.00 | 0.00 | 0.00 | 48 | 1011.1 |
| 20260503023620 | 49 | 98 | 3.0 | 6.0 | 0.00 | 0.00 | 0.00 | 47 | 1011.1 |
| 20260503023118 | 50 | 344 | 4.0 | 9.0 | 0.00 | 0.00 | 0.00 | 44 | 1011.1 |
| 20260503022613 | 50 | 173 | 1.0 | 6.0 | 0.00 | 0.00 | 0.00 | 42 | 1011.2 |
| 20260503022108 | 50 | 69 | 4.0 | 6.0 | 0.00 | 0.00 | 0.00 | 42 | 1010.8 |
| 20260503021606 | 50 | 119 | 1.0 | 3.0 | 0.00 | 0.00 | 0.00 | 42 | 1011.0 |
| 20260503021102 | 50 | 131 | 1.0 | 6.0 | 0.00 | 0.00 | 0.00 | 42 | 1010.9 |
| 20260503020559 | 50 | 138 | 0.0 | 2.0 | 0.00 | 0.00 | 0.00 | 42 | 1010.9 |
| 20260503020056 | 50 | 135 | 2.0 | 3.0 | 0.00 | 0.00 | 0.00 | 42 | 1010.9 |
| 20260503015553 | 50 | 146 | 1.0 | 3.0 | 0.00 | 0.00 | 0.00 | 41 | 1010.9 |
| 20260503015050 | 50 | 138 | 2.0 | 6.0 | 0.00 | 0.00 | 0.00 | 41 | 1010.9 |
| 20260503014546 | 51 | 95 | 6.0 | 9.0 | 0.00 | 0.00 | 0.00 | 40 | 1010.8 |
| 20260503014044 | 51 | 146 | 0.0 | 4.0 | 0.00 | 0.00 | 0.00 | 40 | 1010.8 |
| 20260503013541 | 51 | 117 | 3.0 | 4.0 | 0.00 | 0.00 | 0.00 | 40 | 1010.9 |
| 20260503013039 | 51 | 306 | 2.0 | 7.0 | 0.00 | 0.00 | 0.00 | 40 | 1010.8 |
| 20260503012536 | 51 | 138 | 2.0 | 7.0 | 0.00 | 0.00 | 0.00 | 39 | 1010.7 |
| 20260503012032 | 51 | 338 | 4.0 | 6.0 | 0.00 | 0.00 | 0.00 | 39 | 1010.4 |
| 20260503011529 | 51 | 134 | 2.0 | 4.0 | 0.00 | 0.00 | 0.00 | 39 | 1010.5 |
| 20260503011026 | 51 | 336 | 2.0 | 4.0 | 0.00 | 0.00 | 0.00 | 39 | 1010.4 |
| 20260503010522 | 51 | 147 | 0.0 | 1.0 | 0.00 | 0.00 | 0.00 | 39 | 1010.4 |
| 20260503010020 | 51 | 136 | 1.0 | 3.0 | 0.00 | 0.00 | 0.00 | 38 | 1010.2 |
| 20260503005517 | 51 | 127 | 3.0 | 4.0 | 0.00 | 0.00 | 0.00 | 37 | 1010.3 |
| 20260503005015 | 51 | 154 | 3.0 | 13.0 | 0.00 | 0.00 | 0.00 | 38 | 1010.1 |
| 20260503004510 | 51 | 90 | 3.0 | 3.0 | 0.00 | 0.00 | 0.00 | 38 | 1009.9 |
| 20260503004008 | 51 | 20 | 5.0 | 8.0 | 0.00 | 0.00 | 0.00 | 38 | 1009.9 |
| 20260503003505 | 52 | 2 | 2.0 | 8.0 | 0.00 | 0.00 | 0.00 | 37 | 1010.0 |
| 20260503003002 | 52 | 152 | 4.0 | 9.0 | 0.00 | 0.00 | 0.00 | 37 | 1009.9 |
| 20260503002459 | 52 | 78 | 1.0 | 9.0 | 0.00 | 0.00 | 0.00 | 37 | 1009.8 |
| 20260503001955 | 52 | 127 | 1.0 | 6.0 | 0.00 | 0.00 | 0.00 | 37 | 1009.6 |
| 20260503001452 | 52 | 341 | 7.0 | 9.0 | 0.00 | 0.00 | 0.00 | 36 | 1009.6 |
| 20260503000949 | 52 | 144 | 1.0 | 3.0 | 0.00 | 0.00 | 0.00 | 37 | 1009.6 |
| 20260503000447 | 52 | 307 | 6.0 | 9.0 | 0.00 | 0.00 | 0.00 | 36 | 1009.6 |
| 20260502235944 | 52 | 129 | 4.0 | 10.0 | 0.00 | 0.00 | 0.00 | 36 | 1009.3 |
| 20260502235440 | 52 | 352 | 9.0 | 11.0 | 0.00 | 0.00 | 0.00 | 36 | 1009.4 |
| 20260502234938 | 53 | 44 | 4.0 | 9.0 | 0.00 | 0.00 | 0.00 | 35 | 1009.2 |
| 20260502234434 | 53 | 51 | 5.0 | 9.0 | 0.00 | 0.00 | 0.00 | 35 | 1009.2 |
| 20260502233932 | 53 | 348 | 6.0 | 7.0 | 0.00 | 0.00 | 0.00 | 34 | 1009.3 |
| 20260502233427 | 53 | 24 | 5.0 | 9.0 | 0.00 | 0.00 | 0.00 | 35 | 1009.0 |
| 20260502232924 | 53 | 323 | 9.0 | 14.0 | 0.00 | 0.00 | 0.00 | 35 | 1009.0 |
| 20260502232420 | 53 | 347 | 9.0 | 13.0 | 0.00 | 0.00 | 0.00 | 35 | 1009.2 |
| 20260502231918 | 53 | 341 | 6.0 | 16.0 | 0.00 | 0.00 | 0.00 | 34 | 1009.2 |
| 20260502231415 | 53 | 1 | 10.0 | 15.0 | 0.00 | 0.00 | 0.00 | 35 | 1009.0 |
| 20260502230913 | 53 | 347 | 13.0 | 17.0 | 0.00 | 0.00 | 0.00 | 34 | 1008.7 |
| 20260502230411 | 54 | 150 | 3.0 | 8.0 | 0.00 | 0.00 | 0.00 | 35 | 1008.9 |